Location: Isles
(48.9125°N, 2.8272°E)
Time: 12:02:05
(UTC+00:00)

Cosmos 1745 Rocket - Pass Details

Date: 03 February 2023
Orbit: 951 x 998 km, 83.0° (Epoch: 25 March)

Event Time Altitude Azimuth Distance (km) Brightness Sun altitude
Rises 19:13:15 0° 349° (N) 3,700 7.2 -23.9°
Reaches altitude 10° 19:15:48 10° 347° (NNW) 2,741 6.5 -24.3°
Maximum altitude 19:22:03 73° 265° (W) 1,017 4.1 -25.3°
Drops below altitude 10° 19:28:10 10° 182° (S) 2,691 6.3 -26.3°
Sets 19:30:39 0° 180° (S) 3,627 6.9 -26.7°
